Change the Weather History Date:

Thursday, December 13, 2012

  Actual Average Record
Temperature  
Mean Temperature 35 °F -  
Max Temperature 45 °F 40 °F 65 °F (1979)
Min Temperature 24 °F 20 °F 0 °F (1982)
Degree Days  
Heating Degree Days 30    
Moisture  
Dew Point 21 °F    
Average Humidity 69    
Maximum Humidity 85    
Minimum Humidity 38    
Precipitation  
Precipitation 0.00 in - - ()
Sea Level Pressure  
Sea Level Pressure 30.41 in    
Wind  
Wind Speed 1 mph (NNW)    
Max Wind Speed 6 mph    
Max Gust Speed -    
Visibility 9 miles    
Events      
Averages and records for this station are not official NWS values.
T = Trace of Precipitation, MM = Missing Value Source: NWS Daily Summary

Daily Weather History Graph

Daily Weather History Graph

Search for Another Location

Airport or City:

Trip Planner

Search our weather history database for the weather conditions in past years. The results will help you decide how hot, cold, wet, or windy it might be!

Date:

Astronomy

Dec. 13, 2012 Rise Set
Actual Time 7:07 AM EST 4:18 PM EST
Civil Twilight 6:36 AM EST 4:50 PM EST
Nautical Twilight 6:01 AM EST 5:25 PM EST
Astronomical Twilight 5:27 AM EST 5:58 PM EST
Moon 7:12 AM EST (12/13) 4:58 PM EST (12/13)
Length of Visible Light 10h 13m
Length of Day
9h 10m
New Moon, 0% of the Moon is Illuminated
Dec 13
New Moon
Dec 20
First Quarter
Dec 28
Full
Jan 4
Last Quarter
Jan 11
New

Hourly Weather History & Observations

Time (EST) Temp. Windchill Dew Point Humidity Pressure Visibility Wind Dir Wind Speed Gust Speed Precip Events Conditions
12:52 AM 28.0 °F - 23.0 °F 81% 30.44 in 10.0 mi Calm Calm - N/A   Clear
1:52 AM 27.0 °F - 23.0 °F 85% 30.43 in 7.0 mi Calm Calm - N/A   Clear
2:52 AM 27.0 °F - 23.0 °F 85% 30.44 in 8.0 mi Calm Calm - N/A   Clear
3:52 AM 25.0 °F - 19.9 °F 81% 30.43 in 7.0 mi Calm Calm - N/A   Clear
4:52 AM 26.1 °F - 21.9 °F 84% 30.44 in 9.0 mi Calm Calm - N/A   Clear
5:52 AM 25.0 °F - 21.0 °F 85% 30.46 in 8.0 mi Calm Calm - N/A   Clear
6:52 AM 25.0 °F - 21.0 °F 85% 30.45 in 9.0 mi Calm Calm - N/A   Clear
7:52 AM 25.0 °F - 21.0 °F 85% 30.48 in 8.0 mi Calm Calm - N/A   Clear
8:52 AM 28.0 °F 22.8 °F 23.0 °F 81% 30.48 in 8.0 mi ENE 4.6 mph - N/A   Clear
9:52 AM 34.0 °F - 25.0 °F 70% 30.46 in 10.0 mi Calm Calm - N/A   Clear
10:52 AM 41.0 °F - 25.0 °F 53% 30.44 in 10.0 mi Calm Calm - N/A   Clear
11:52 AM 43.0 °F - 21.9 °F 43% 30.43 in 10.0 mi Calm Calm - N/A   Clear
12:52 PM 45.0 °F 41.8 °F 21.0 °F 39% 30.40 in 10.0 mi NNW 5.8 mph - N/A   Clear
1:52 PM 44.1 °F - 19.9 °F 38% 30.38 in 10.0 mi Calm Calm - N/A   Clear
2:52 PM 44.1 °F 40.8 °F 19.9 °F 38% 30.38 in 10.0 mi NW 5.8 mph - N/A   Clear
3:52 PM 42.1 °F 40.2 °F 18.0 °F 38% 30.37 in 10.0 mi WNW 3.5 mph - N/A   Clear
4:52 PM 36.0 °F - 19.9 °F 52% 30.37 in 10.0 mi Calm Calm - N/A   Clear
7:52 PM 28.0 °F - 21.0 °F 75% 30.38 in 10.0 mi Calm Calm - N/A   Clear
8:52 PM 26.1 °F - 19.9 °F 78% 30.36 in 10.0 mi Calm Calm - N/A   Clear
9:52 PM 25.0 °F - 19.0 °F 78% 30.34 in 10.0 mi Calm Calm - N/A   Clear
10:52 PM 25.0 °F - 19.9 °F 81% 30.34 in 8.0 mi Calm Calm - N/A   Clear
11:52 PM 24.1 °F - 19.0 °F 81% 30.33 in 8.0 mi Calm Calm - N/A   Clear